• In Italy
  • List of Countries
  • For 7 days
  • Water Temperature
  • Satellite Maps
  • Weather Map
  • Weather Widgets
  • user-avatar
    Login

    Hourly Weather Córdoba

    Today, 22 November, Wednesday

    Time Temperature Precipitation Wind Pressure Humidity
    00:00 +17°C° 0 mm 2 mps 725 mmHg 52%
    01:00 +17°C° 0 mm 2 mps 725 mmHg 56%
    02:00 +17°C° 0 mm 2 mps 725 mmHg 59%
    03:00 +17°C° 0 mm 3 mps 724 mmHg 60%
    04:00 +17°C° 0 mm 3 mps 724 mmHg 60%
    05:00 +16°C° 0 mm 3 mps 724 mmHg 61%
    06:00 +19°C° 0 mm 4 mps 724 mmHg 56%
    07:00 +21°C° 0 mm 4 mps 725 mmHg 51%
    08:00 +25°C° 0 mm 4 mps 725 mmHg 45%
    09:00 +26°C° 0 mm 4 mps 725 mmHg 39%
    10:00 +28°C° 0 mm 4 mps 724 mmHg 33%
    11:00 +30°C° 0 mm 4 mps 724 mmHg 27%
    12:00 +32°C° 0 mm 4 mps 723 mmHg 25%
    13:00 +33°C° 0 mm 4 mps 723 mmHg 23%
    14:00 +34°C° 0 mm 4 mps 722 mmHg 22%
    15:00 +33°C° 0 mm 5 mps 721 mmHg 22%
    16:00 +33°C° 0 mm 5 mps 721 mmHg 22%
    17:00 +33°C° 0 mm 5 mps 720 mmHg 23%
    18:00 +30°C° 0 mm 4 mps 720 mmHg 26%
    19:00 +27°C° 0 mm 4 mps 720 mmHg 29%
    20:00 +25°C° 0 mm 3 mps 720 mmHg 33%
    21:00 +24°C° 0 mm 3 mps 720 mmHg 33%
    22:00 +22°C° 0 mm 3 mps 721 mmHg 34%
    23:00 +22°C° 0 mm 3 mps 721 mmHg 35%

    Tomorrow, 23 November, Thursday

    Time Temperature Precipitation Wind Pressure Humidity
    00:00 +21°C° 0 mm 4 mps 721 mmHg 36%
    01:00 +21°C° 0 mm 4 mps 720 mmHg 36%
    02:00 +21°C° 0 mm 4 mps 720 mmHg 37%
    03:00 +21°C° 0 mm 4 mps 720 mmHg 37%
    04:00 +20°C° 0 mm 4 mps 720 mmHg 37%
    05:00 +20°C° 0 mm 4 mps 720 mmHg 37%
    06:00 +22°C° 0 mm 4 mps 720 mmHg 35%
    07:00 +26°C° 0 mm 5 mps 721 mmHg 32%
    08:00 +28°C° 0 mm 5 mps 721 mmHg 29%
    09:00 +32°C° 0 mm 5 mps 721 mmHg 26%
    10:00 +34°C° 0 mm 5 mps 721 mmHg 23%
    11:00 +36°C° 0 mm 5 mps 721 mmHg 19%
    12:00 +37°C° 0 mm 5 mps 720 mmHg 18%
    13:00 +39°C° 0 mm 5 mps 720 mmHg 16%
    14:00 +39°C° 0 mm 5 mps 719 mmHg 14%
    15:00 +39°C° 0 mm 5 mps 719 mmHg 14%
    16:00 +38°C° 0 mm 4 mps 718 mmHg 15%
    17:00 +37°C° 0 mm 4 mps 718 mmHg 15%
    18:00 +35°C° 0 mm 4 mps 718 mmHg 18%
    19:00 +31°C° 0 mm 3 mps 719 mmHg 21%
    20:00 +29°C° 0 mm 3 mps 719 mmHg 25%
    21:00 +28°C° 0 mm 4 mps 720 mmHg 27%
    22:00 +27°C° 0 mm 4 mps 720 mmHg 29%
    23:00 +26°C° 0 mm 5 mps 721 mmHg 31%

    Day after tomorrow, 24 November, Friday

    Time Temperature Precipitation Wind Pressure Humidity
    00:00 +25°C° 0 mm 5 mps 721 mmHg 34%
    01:00 +23°C° 0 mm 5 mps 720 mmHg 36%
    02:00 +21°C° 0 mm 4 mps 720 mmHg 39%
    03:00 +20°C° 0 mm 5 mps 720 mmHg 44%
    04:00 +19°C° 0 mm 5 mps 721 mmHg 50%
    05:00 +19°C° 0 mm 5 mps 721 mmHg 55%
    06:00 +19°C° 0 mm 5 mps 721 mmHg 58%
    07:00 +19°C° 0 mm 5 mps 722 mmHg 60%
    08:00 +19°C° 0 mm 5 mps 722 mmHg 63%
    09:00 +21°C° 0.1 mm 4 mps 722 mmHg 59%
    10:00 +22°C° 0.1 mm 4 mps 722 mmHg 55%
    11:00 +25°C° 0.1 mm 4 mps 722 mmHg 51%
    12:00 +26°C° 0.2 mm 4 mps 721 mmHg 49%
    13:00 +27°C° 0.2 mm 4 mps 721 mmHg 47%
    14:00 +28°C° 0.2 mm 4 mps 720 mmHg 44%
    15:00 +27°C° 0.3 mm 4 mps 720 mmHg 47%
    16:00 +27°C° 0.3 mm 4 mps 720 mmHg 51%
    17:00 +26°C° 0.3 mm 4 mps 720 mmHg 54%
    18:00 +25°C° 0.5 mm 4 mps 721 mmHg 63%
    19:00 +22°C° 0.5 mm 3 mps 721 mmHg 72%
    20:00 +20°C° 0.5 mm 3 mps 722 mmHg 81%
    21:00 +19°C° 0.6 mm 2 mps 723 mmHg 83%
    22:00 +19°C° 0.6 mm 2 mps 723 mmHg 86%
    23:00 +18°C° 0.6 mm 2 mps 723 mmHg 88%

    25 November, Saturday

    Time Temperature Precipitation Wind Pressure Humidity
    00:00 +19°C° 0.1 mm 1 mps 723 mmHg 88%
    01:00 +19°C° 0.1 mm 1 mps 723 mmHg 87%
    02:00 +18°C° 0.1 mm 1 mps 723 mmHg 86%
    03:00 +18°C° 0 mm 1 mps 723 mmHg 87%
    04:00 +18°C° 0 mm 1 mps 723 mmHg 88%
    05:00 +16°C° 0 mm 1 mps 723 mmHg 88%
    06:00 +19°C° 0 mm 1 mps 724 mmHg 79%
    07:00 +21°C° 0 mm 1 mps 724 mmHg 70%
    08:00 +24°C° 0 mm 1 mps 725 mmHg 61%
    09:00 +26°C° 0 mm 1 mps 724 mmHg 50%
    10:00 +28°C° 0 mm 2 mps 724 mmHg 40%
    11:00 +31°C° 0 mm 2 mps 724 mmHg 30%
    12:00 +31°C° 0 mm 2 mps 724 mmHg 27%
    13:00 +33°C° 0 mm 3 mps 723 mmHg 24%
    14:00 +34°C° 0 mm 3 mps 722 mmHg 21%
    15:00 +34°C° 0 mm 4 mps 722 mmHg 22%
    16:00 +34°C° 0 mm 4 mps 722 mmHg 23%
    17:00 +33°C° 0 mm 4 mps 721 mmHg 24%
    18:00 +30°C° 0 mm 3 mps 721 mmHg 29%
    19:00 +28°C° 0 mm 3 mps 721 mmHg 35%
    20:00 +25°C° 0 mm 2 mps 722 mmHg 40%
    21:00 +25°C° 0 mm 2 mps 722 mmHg 41%
    22:00 +24°C° 0 mm 2 mps 722 mmHg 43%
    23:00 +23°C° 0 mm 2 mps 722 mmHg 44%

    26 November, Sunday

    Time Temperature Precipitation Wind Pressure Humidity
    00:00 +23°C° 0 mm 1 mps 722 mmHg 44%
    01:00 +23°C° 0 mm 1 mps 721 mmHg 45%
    02:00 +22°C° 0 mm 1 mps 721 mmHg 45%
    03:00 +22°C° 0 mm 1 mps 721 mmHg 45%
    04:00 +22°C° 0 mm 1 mps 721 mmHg 46%
    05:00 +21°C° 0 mm 1 mps 720 mmHg 46%
    06:00 +24°C° 0 mm 2 mps 721 mmHg 41%
    07:00 +26°C° 0 mm 2 mps 721 mmHg 36%
    08:00 +29°C° 0 mm 3 mps 721 mmHg 31%
    09:00 +31°C° 0 mm 3 mps 721 mmHg 27%
    10:00 +34°C° 0 mm 4 mps 721 mmHg 24%
    11:00 +36°C° 0 mm 4 mps 720 mmHg 20%
    12:00 +36°C° 0 mm 4 mps 720 mmHg 19%
    13:00 +37°C° 0 mm 4 mps 719 mmHg 17%
    14:00 +38°C° 0 mm 4 mps 718 mmHg 16%
    15:00 +38°C° 0 mm 4 mps 717 mmHg 16%
    16:00 +37°C° 0 mm 4 mps 717 mmHg 17%
    17:00 +37°C° 0 mm 4 mps 716 mmHg 17%
    18:00 +35°C° 0 mm 4 mps 716 mmHg 21%
    19:00 +31°C° 0 mm 3 mps 717 mmHg 25%
    20:00 +29°C° 0 mm 3 mps 717 mmHg 29%
    21:00 +28°C° 0 mm 3 mps 717 mmHg 30%
    22:00 +27°C° 0 mm 2 mps 717 mmHg 31%
    23:00 +26°C° 0 mm 2 mps 717 mmHg 33%

    27 November, Monday

    Time Temperature Precipitation Wind Pressure Humidity
    00:00 +25°C° 0 mm 2 mps 717 mmHg 33%
    01:00 +25°C° 0 mm 2 mps 716 mmHg 33%
    02:00 +25°C° 0 mm 2 mps 716 mmHg 33%
    03:00 +25°C° 0.1 mm 2 mps 716 mmHg 37%
    04:00 +24°C° 0.1 mm 2 mps 717 mmHg 41%
    05:00 +24°C° 0.1 mm 2 mps 717 mmHg 45%
    06:00 +24°C° 0.6 mm 3 mps 718 mmHg 50%
    07:00 +23°C° 0.6 mm 4 mps 719 mmHg 54%
    08:00 +25°C° 0.6 mm 5 mps 720 mmHg 58%
    09:00 +25°C° 0.7 mm 5 mps 720 mmHg 57%
    10:00 +26°C° 0.7 mm 6 mps 721 mmHg 57%
    11:00 +27°C° 0.7 mm 6 mps 721 mmHg 56%
    12:00 +27°C° 0.5 mm 7 mps 721 mmHg 55%
    13:00 +27°C° 0.5 mm 7 mps 721 mmHg 54%
    14:00 +27°C° 0.5 mm 8 mps 722 mmHg 53%
    15:00 +26°C° 0.4 mm 8 mps 722 mmHg 52%
    16:00 +24°C° 0.4 mm 8 mps 722 mmHg 51%
    17:00 +24°C° 0.4 mm 8 mps 722 mmHg 51%
    18:00 +22°C° 0 mm 6 mps 723 mmHg 54%
    19:00 +21°C° 0 mm 5 mps 724 mmHg 58%
    20:00 +19°C° 0 mm 3 mps 724 mmHg 62%
    21:00 +19°C° 0 mm 3 mps 725 mmHg 65%
    22:00 +18°C° 0 mm 3 mps 725 mmHg 68%
    23:00 +17°C° 0 mm 3 mps 726 mmHg 71%
    Show more